Time,TemperatureF,DewpointF,PressureIn,WindDirection,WindDirectionDegrees,WindSpeedMPH,WindSpeedGustMPH,Humidity,HourlyPrecipIn,Conditions,Clouds,dailyrainin,SoftwareType,DateUTC
2013-06-03 00:02:00,72.0,51.0,29.64,West,263,0.0,-999.0,48,-99.99,,,-99.99,,2013-06-03 07:02:00,
2013-06-03 00:12:00,72.0,51.0,29.64,West,263,0.0,-999.0,48,-99.99,,,-99.99,,2013-06-03 07:12:00,
2013-06-03 00:22:00,71.0,51.0,29.64,West,263,0.0,-999.0,50,-99.99,,,-99.99,,2013-06-03 07:22:00,
2013-06-03 00:32:00,70.0,50.0,29.64,West,263,0.0,-999.0,50,-99.99,,,-99.99,,2013-06-03 07:32:00,
2013-06-03 00:42:00,70.0,50.0,29.64,West,263,0.0,-999.0,50,-99.99,,,-99.99,,2013-06-03 07:42:00,
2013-06-03 00:52:00,70.0,51.0,29.64,West,263,0.0,-999.0,51,-99.99,,,-99.99,,2013-06-03 07:52:00,
2013-06-03 01:02:00,69.0,50.0,29.64,West,262,0.0,-999.0,51,-99.99,,,-99.99,,2013-06-03 08:02:00,
2013-06-03 01:12:00,69.0,50.0,29.64,West,262,0.0,-999.0,51,-99.99,,,-99.99,,2013-06-03 08:12:00,
2013-06-03 01:21:00,69.0,51.0,29.64,West,262,0.0,-999.0,52,-99.99,,,-99.99,,2013-06-03 08:21:00,
2013-06-03 01:32:00,68.0,50.0,29.64,West,262,0.0,-999.0,53,-99.99,,,-99.99,,2013-06-03 08:32:00,
2013-06-03 01:42:00,68.0,50.0,29.64,West,262,0.0,-999.0,53,-99.99,,,-99.99,,2013-06-03 08:42:00,
2013-06-03 01:52:00,68.0,51.0,29.64,West,262,0.0,-999.0,55,-99.99,,,-99.99,,2013-06-03 08:52:00,
2013-06-03 02:02:00,67.0,51.0,29.64,West,262,0.0,-999.0,56,-99.99,,,-99.99,,2013-06-03 09:02:00,
2013-06-03 02:12:00,67.0,51.0,29.64,West,262,0.0,-999.0,56,-99.99,,,-99.99,,2013-06-03 09:12:00,
2013-06-03 02:22:00,67.0,51.0,29.64,South,185,0.0,-999.0,57,-99.99,,,-99.99,,2013-06-03 09:22:00,
2013-06-03 02:33:00,66.0,51.0,29.64,South,185,0.0,-999.0,58,-99.99,,,-99.99,,2013-06-03 09:33:00,
2013-06-03 02:42:00,66.0,51.0,29.64,South,185,0.0,-999.0,58,-99.99,,,-99.99,,2013-06-03 09:42:00,
2013-06-03 02:52:00,66.0,52.0,29.64,South,185,0.0,-999.0,60,-99.99,,,-99.99,,2013-06-03 09:52:00,
2013-06-03 03:02:00,65.0,51.0,29.64,South,185,0.0,-999.0,61,-99.99,,,-99.99,,2013-06-03 10:02:00,
2013-06-03 03:12:00,65.0,51.0,29.64,South,185,0.0,-999.0,61,-99.99,,,-99.99,,2013-06-03 10:12:00,
2013-06-03 03:22:00,65.0,52.0,29.65,South,185,0.0,-999.0,62,-99.99,,,-99.99,,2013-06-03 10:22:00,
2013-06-03 03:33:00,64.0,52.0,29.65,South,185,0.0,-999.0,64,-99.99,,,-99.99,,2013-06-03 10:33:00,
2013-06-03 03:42:00,64.0,52.0,29.65,South,185,0.0,-999.0,64,-99.99,,,-99.99,,2013-06-03 10:42:00,
2013-06-03 03:52:00,64.0,52.0,29.65,South,180,0.0,-999.0,65,-99.99,,,-99.99,,2013-06-03 10:52:00,
2013-06-03 04:02:00,63.0,51.0,29.65,South,180,0.0,-999.0,66,-99.99,,,-99.99,,2013-06-03 11:02:00,
2013-06-03 04:12:00,63.0,51.0,29.65,South,180,0.0,-999.0,66,-99.99,,,-99.99,,2013-06-03 11:12:00,
2013-06-03 04:22:00,63.0,52.0,29.65,South,180,0.0,-999.0,67,-99.99,,,-99.99,,2013-06-03 11:22:00,
2013-06-03 04:32:00,62.0,51.0,29.65,South,180,0.0,-999.0,68,-99.99,,,-99.99,,2013-06-03 11:32:00,
2013-06-03 04:42:00,62.0,51.0,29.65,South,180,0.0,-999.0,68,-99.99,,,-99.99,,2013-06-03 11:42:00,
2013-06-03 04:52:00,62.0,52.0,29.65,South,180,0.0,-999.0,69,-99.99,,,-99.99,,2013-06-03 11:52:00,
2013-06-03 05:02:00,62.0,52.0,29.65,South,180,0.0,-999.0,71,-99.99,,,-99.99,,2013-06-03 12:02:00,
2013-06-03 05:12:00,62.0,52.0,29.65,South,180,0.0,-999.0,71,-99.99,,,-99.99,,2013-06-03 12:12:00,
2013-06-03 05:21:00,61.0,52.0,29.65,South,180,0.0,-999.0,71,-99.99,,,-99.99,,2013-06-03 12:21:00,
2013-06-03 05:32:00,61.0,52.0,29.66,South,180,0.0,-999.0,73,-99.99,,,-99.99,,2013-06-03 12:32:00,
2013-06-03 05:42:00,61.0,52.0,29.66,South,180,0.0,-999.0,73,-99.99,,,-99.99,,2013-06-03 12:42:00,
2013-06-03 05:52:00,60.0,51.0,29.66,South,180,0.0,-999.0,73,-99.99,,,-99.99,,2013-06-03 12:52:00,
2013-06-03 06:02:00,60.0,52.0,29.66,South,180,0.0,-999.0,74,-99.99,,,-99.99,,2013-06-03 13:02:00,
2013-06-03 06:12:00,60.0,52.0,29.66,South,180,0.0,-999.0,74,-99.99,,,-99.99,,2013-06-03 13:12:00,
2013-06-03 06:22:00,60.0,52.0,29.66,South,180,0.0,-999.0,76,-99.99,,,-99.99,,2013-06-03 13:22:00,
2013-06-03 06:32:00,59.0,51.0,29.67,South,178,0.0,-999.0,76,-99.99,,,-99.99,,2013-06-03 13:32:00,
2013-06-03 06:42:00,59.0,51.0,29.67,South,178,0.0,-999.0,76,-99.99,,,-99.99,,2013-06-03 13:42:00,
2013-06-03 06:52:00,59.0,52.0,29.67,South,178,0.0,-999.0,77,-99.99,,,-99.99,,2013-06-03 13:52:00,
2013-06-03 07:02:00,59.0,52.0,29.67,South,178,0.0,-999.0,78,-99.99,,,-99.99,,2013-06-03 14:02:00,
2013-06-03 07:12:00,59.0,52.0,29.67,South,178,0.0,-999.0,78,-99.99,,,-99.99,,2013-06-03 14:12:00,
2013-06-03 07:22:00,60.0,53.0,29.68,South,178,0.0,-999.0,77,-99.99,,,-99.99,,2013-06-03 14:22:00,
2013-06-03 07:32:00,61.0,53.0,29.68,South,178,0.0,-999.0,75,-99.99,,,-99.99,,2013-06-03 14:32:00,
2013-06-03 07:42:00,61.0,53.0,29.68,South,178,0.0,-999.0,75,-99.99,,,-99.99,,2013-06-03 14:42:00,
2013-06-03 07:52:00,62.0,53.0,29.68,South,178,0.0,-999.0,73,-99.99,,,-99.99,,2013-06-03 14:52:00,
2013-06-03 08:02:00,64.0,54.0,29.69,South,178,0.0,-999.0,70,-99.99,,,-99.99,,2013-06-03 15:02:00,
2013-06-03 08:12:00,64.0,54.0,29.69,South,178,0.0,-999.0,70,-99.99,,,-99.99,,2013-06-03 15:12:00,
2013-06-03 08:22:00,65.0,54.0,29.70,East,94,0.0,-999.0,68,-99.99,,,-99.99,,2013-06-03 15:22:00,
2013-06-03 08:33:00,66.0,55.0,29.70,East,96,0.0,-999.0,67,-99.99,,,-99.99,,2013-06-03 15:33:00,
2013-06-03 08:43:00,66.0,55.0,29.70,East,96,0.0,-999.0,67,-99.99,,,-99.99,,2013-06-03 15:43:00,
2013-06-03 08:53:00,67.0,55.0,29.70,East,96,0.0,-999.0,65,-99.99,,,-99.99,,2013-06-03 15:53:00,
2013-06-03 09:03:00,68.0,55.0,29.70,East,96,0.0,-999.0,64,-99.99,,,-99.99,,2013-06-03 16:03:00,
2013-06-03 09:12:00,68.0,55.0,29.70,East,96,0.0,-999.0,64,-99.99,,,-99.99,,2013-06-03 16:12:00,
2013-06-03 09:22:00,69.0,55.0,29.71,East,92,1.0,-999.0,60,-99.99,,,-99.99,,2013-06-03 16:22:00,
2013-06-03 09:33:00,70.0,55.0,29.70,East,88,0.0,-999.0,59,-99.99,,,-99.99,,2013-06-03 16:33:00,
2013-06-03 09:42:00,72.0,55.0,29.71,East,88,0.0,-999.0,56,-99.99,,,-99.99,,2013-06-03 16:42:00,
2013-06-03 09:53:00,72.0,55.0,29.71,East,88,0.0,-999.0,56,-99.99,,,-99.99,,2013-06-03 16:53:00,
2013-06-03 10:02:00,74.0,56.0,29.71,East,88,1.0,-999.0,54,-99.99,,,-99.99,,2013-06-03 17:02:00,
2013-06-03 10:12:00,74.0,56.0,29.71,East,88,1.0,-999.0,54,-99.99,,,-99.99,,2013-06-03 17:12:00,
2013-06-03 10:22:00,75.0,56.0,29.71,East,88,0.0,-999.0,52,-99.99,,,-99.99,,2013-06-03 17:22:00,
2013-06-03 10:33:00,76.0,57.0,29.71,East,88,0.0,-999.0,52,-99.99,,,-99.99,,2013-06-03 17:33:00,
2013-06-03 10:42:00,76.0,57.0,29.71,East,88,0.0,-999.0,52,-99.99,,,-99.99,,2013-06-03 17:42:00,
2013-06-03 10:52:00,77.0,57.0,29.71,East,88,1.0,-999.0,50,-99.99,,,-99.99,,2013-06-03 17:52:00,
2013-06-03 11:02:00,78.0,56.0,29.71,East,88,0.0,-999.0,47,-99.99,,,-99.99,,2013-06-03 18:02:00,
2013-06-03 11:12:00,80.0,57.0,29.71,East,88,0.0,-999.0,46,-99.99,,,-99.99,,2013-06-03 18:12:00,
2013-06-03 11:22:00,80.0,57.0,29.71,East,88,0.0,-999.0,46,-99.99,,,-99.99,,2013-06-03 18:22:00,
2013-06-03 11:32:00,80.0,56.0,29.71,SSW,210,1.0,-999.0,44,-99.99,,,-99.99,,2013-06-03 18:32:00,
2013-06-03 11:42:00,80.0,56.0,29.71,SSW,210,1.0,-999.0,44,-99.99,,,-99.99,,2013-06-03 18:42:00,
2013-06-03 11:52:00,82.0,57.0,29.71,WNW,301,1.0,-999.0,42,-99.99,,,-99.99,,2013-06-03 18:52:00,
2013-06-03 12:03:00,83.0,57.0,29.71,NW,305,1.0,-999.0,41,-99.99,,,-99.99,,2013-06-03 19:03:00,
2013-06-03 12:12:00,83.0,57.0,29.71,NW,305,1.0,-999.0,41,-99.99,,,-99.99,,2013-06-03 19:12:00,
2013-06-03 12:22:00,84.0,56.0,29.70,ESE,118,1.0,-999.0,38,-99.99,,,-99.99,,2013-06-03 19:22:00,
2013-06-03 12:32:00,84.0,56.0,29.71,NW,309,1.0,-999.0,39,-99.99,,,-99.99,,2013-06-03 19:32:00,
2013-06-03 12:42:00,84.0,56.0,29.71,NW,309,1.0,-999.0,39,-99.99,,,-99.99,,2013-06-03 19:42:00,
2013-06-03 12:52:00,85.0,57.0,29.70,WNW,287,0.0,-999.0,38,-99.99,,,-99.99,,2013-06-03 19:52:00,
2013-06-03 13:02:00,86.0,57.0,29.70,ENE,69,1.0,-999.0,38,-99.99,,,-99.99,,2013-06-03 20:02:00,
2013-06-03 13:12:00,86.0,57.0,29.70,ENE,69,1.0,-999.0,38,-99.99,,,-99.99,,2013-06-03 20:12:00,
2013-06-03 13:22:00,87.0,57.0,29.70,North,360,0.0,-999.0,36,-99.99,,,-99.99,,2013-06-03 20:22:00,
2013-06-03 13:32:00,88.0,56.0,29.69,WNW,292,1.0,-999.0,34,-99.99,,,-99.99,,2013-06-03 20:32:00,
2013-06-03 13:42:00,88.0,56.0,29.69,WNW,292,1.0,-999.0,34,-99.99,,,-99.99,,2013-06-03 20:42:00,
2013-06-03 13:52:00,89.0,56.0,29.69,NW,316,1.0,-999.0,33,-99.99,,,-99.99,,2013-06-03 20:52:00,
2013-06-03 14:02:00,89.0,55.0,29.69,West,281,1.0,-999.0,32,-99.99,,,-99.99,,2013-06-03 21:02:00,
2013-06-03 14:12:00,89.0,55.0,29.69,West,281,1.0,-999.0,32,-99.99,,,-99.99,,2013-06-03 21:12:00,
2013-06-03 14:22:00,89.0,58.0,29.69,West,271,1.0,-999.0,35,-99.99,,,-99.99,,2013-06-03 21:22:00,
2013-06-03 14:32:00,89.0,59.0,29.69,SSW,208,1.0,-999.0,36,-99.99,,,-99.99,,2013-06-03 21:32:00,
2013-06-03 14:43:00,89.0,59.0,29.69,SSW,208,1.0,-999.0,36,-99.99,,,-99.99,,2013-06-03 21:43:00,
2013-06-03 14:52:00,88.0,58.0,29.69,SSW,205,1.0,-999.0,36,-99.99,,,-99.99,,2013-06-03 21:52:00,
2013-06-03 15:02:00,88.0,58.0,29.69,SSW,205,1.0,-999.0,36,-99.99,,,-99.99,,2013-06-03 22:02:00,
2013-06-03 15:12:00,88.0,58.0,29.69,SSW,205,1.0,-999.0,36,-99.99,,,-99.99,,2013-06-03 22:12:00,
2013-06-03 15:22:00,88.0,59.0,29.69,East,98,1.0,-999.0,38,-99.99,,,-99.99,,2013-06-03 22:22:00,
2013-06-03 15:32:00,88.0,60.0,29.69,SW,214,1.0,-999.0,39,-99.99,,,-99.99,,2013-06-03 22:32:00,
2013-06-03 15:42:00,88.0,60.0,29.69,SW,214,1.0,-999.0,39,-99.99,,,-99.99,,2013-06-03 22:42:00,
2013-06-03 15:52:00,88.0,58.0,29.69,SW,225,2.0,-999.0,37,-99.99,,,-99.99,,2013-06-03 22:52:00,
2013-06-03 16:02:00,88.0,58.0,29.69,SW,216,1.0,-999.0,37,-99.99,,,-99.99,,2013-06-03 23:02:00,
2013-06-03 16:12:00,88.0,58.0,29.69,SW,216,1.0,-999.0,37,-99.99,,,-99.99,,2013-06-03 23:12:00,
2013-06-03 16:22:00,88.0,58.0,29.68,SW,234,0.0,-999.0,37,-99.99,,,-99.99,,2013-06-03 23:22:00,
2013-06-03 16:32:00,88.0,58.0,29.68,SSW,202,1.0,-999.0,37,-99.99,,,-99.99,,2013-06-03 23:32:00,
2013-06-03 16:42:00,88.0,58.0,29.68,SSW,202,1.0,-999.0,37,-99.99,,,-99.99,,2013-06-03 23:42:00,
2013-06-03 16:52:00,87.0,58.0,29.68,SSW,202,1.0,-999.0,37,-99.99,,,-99.99,,2013-06-03 23:52:00,
2013-06-03 17:02:00,88.0,58.0,29.68,SSW,205,1.0,-999.0,37,-99.99,,,-99.99,,2013-06-04 00:02:00,
2013-06-03 17:12:00,88.0,58.0,29.68,SSW,205,1.0,-999.0,37,-99.99,,,-99.99,,2013-06-04 00:12:00,
2013-06-03 17:22:00,87.0,58.0,29.68,SSW,194,1.0,-999.0,37,-99.99,,,-99.99,,2013-06-04 00:22:00,
2013-06-03 17:32:00,87.0,59.0,29.68,WSW,239,1.0,-999.0,39,-99.99,,,-99.99,,2013-06-04 00:32:00,
2013-06-03 17:42:00,87.0,59.0,29.68,WSW,239,1.0,-999.0,39,-99.99,,,-99.99,,2013-06-04 00:42:00,
2013-06-03 17:52:00,86.0,59.0,29.68,SW,225,1.0,-999.0,40,-99.99,,,-99.99,,2013-06-04 00:52:00,
2013-06-03 18:02:00,85.0,58.0,29.67,SW,224,1.0,-999.0,40,-99.99,,,-99.99,,2013-06-04 01:02:00,
2013-06-03 18:12:00,85.0,58.0,29.67,SW,224,1.0,-999.0,40,-99.99,,,-99.99,,2013-06-04 01:12:00,
2013-06-03 18:22:00,84.0,58.0,29.67,WSW,254,1.0,-999.0,42,-99.99,,,-99.99,,2013-06-04 01:22:00,
2013-06-03 18:32:00,83.0,58.0,29.67,WSW,241,1.0,-999.0,43,-99.99,,,-99.99,,2013-06-04 01:32:00,
2013-06-03 18:42:00,83.0,58.0,29.67,WSW,241,1.0,-999.0,43,-99.99,,,-99.99,,2013-06-04 01:42:00,
2013-06-03 18:52:00,82.0,57.0,29.68,SSW,211,1.0,-999.0,43,-99.99,,,-99.99,,2013-06-04 01:52:00,
2013-06-03 19:02:00,81.0,58.0,29.68,SW,220,0.0,-999.0,45,-99.99,,,-99.99,,2013-06-04 02:02:00,
2013-06-03 19:12:00,81.0,58.0,29.68,SW,220,0.0,-999.0,45,-99.99,,,-99.99,,2013-06-04 02:12:00,
2013-06-03 19:21:00,80.0,57.0,29.69,SW,217,0.0,-999.0,46,-99.99,,,-99.99,,2013-06-04 02:21:00,
2013-06-03 19:32:00,79.0,56.0,29.69,SW,223,0.0,-999.0,46,-99.99,,,-99.99,,2013-06-04 02:32:00,
2013-06-03 19:42:00,79.0,56.0,29.69,SW,223,0.0,-999.0,46,-99.99,,,-99.99,,2013-06-04 02:42:00,
2013-06-03 19:52:00,77.0,56.0,29.70,SSW,199,0.0,-999.0,48,-99.99,,,-99.99,,2013-06-04 02:52:00,
2013-06-03 20:02:00,76.0,55.0,29.70,ESE,120,0.0,-999.0,49,-99.99,,,-99.99,,2013-06-04 03:02:00,
2013-06-03 20:12:00,76.0,55.0,29.70,ESE,120,0.0,-999.0,49,-99.99,,,-99.99,,2013-06-04 03:12:00,
2013-06-03 20:22:00,75.0,56.0,29.71,SSE,167,0.0,-999.0,51,-99.99,,,-99.99,,2013-06-04 03:22:00,
2013-06-03 20:32:00,73.0,55.0,29.71,SW,217,0.0,-999.0,53,-99.99,,,-99.99,,2013-06-04 03:32:00,
2013-06-03 20:43:00,73.0,55.0,29.71,SW,217,0.0,-999.0,53,-99.99,,,-99.99,,2013-06-04 03:43:00,
2013-06-03 20:53:00,72.0,55.0,29.72,South,180,0.0,-999.0,55,-99.99,,,-99.99,,2013-06-04 03:53:00,
2013-06-03 21:02:00,71.0,54.0,29.72,South,180,0.0,-999.0,56,-99.99,,,-99.99,,2013-06-04 04:02:00,
2013-06-03 21:13:00,71.0,54.0,29.72,South,180,0.0,-999.0,56,-99.99,,,-99.99,,2013-06-04 04:13:00,
2013-06-03 21:23:00,70.0,55.0,29.72,SSW,193,0.0,-999.0,58,-99.99,,,-99.99,,2013-06-04 04:23:00,
2013-06-03 21:33:00,69.0,54.0,29.73,ESE,122,0.0,-999.0,59,-99.99,,,-99.99,,2013-06-04 04:33:00,
2013-06-03 21:42:00,69.0,54.0,29.73,ESE,122,0.0,-999.0,59,-99.99,,,-99.99,,2013-06-04 04:42:00,
2013-06-03 21:53:00,68.0,54.0,29.73,ESE,123,0.0,-999.0,60,-99.99,,,-99.99,,2013-06-04 04:53:00,
2013-06-03 22:02:00,67.0,53.0,29.75,ESE,123,0.0,-999.0,61,-99.99,,,-99.99,,2013-06-04 05:02:00,
2013-06-03 22:12:00,67.0,53.0,29.75,ESE,123,0.0,-999.0,61,-99.99,,,-99.99,,2013-06-04 05:12:00,
2013-06-03 22:22:00,67.0,54.0,29.75,SSW,197,0.0,-999.0,63,-99.99,,,-99.99,,2013-06-04 05:22:00,
2013-06-03 22:32:00,66.0,53.0,29.75,SE,135,0.0,-999.0,64,-99.99,,,-99.99,,2013-06-04 05:32:00,
2013-06-03 22:42:00,66.0,53.0,29.75,SE,135,0.0,-999.0,64,-99.99,,,-99.99,,2013-06-04 05:42:00,
2013-06-03 22:52:00,65.0,53.0,29.76,ESE,111,0.0,-999.0,65,-99.99,,,-99.99,,2013-06-04 05:52:00,
2013-06-03 23:02:00,64.0,53.0,29.76,SE,126,0.0,-999.0,67,-99.99,,,-99.99,,2013-06-04 06:02:00,
2013-06-03 23:12:00,64.0,53.0,29.76,SE,126,0.0,-999.0,67,-99.99,,,-99.99,,2013-06-04 06:12:00,
2013-06-03 23:22:00,64.0,53.0,29.76,ESE,114,0.0,-999.0,68,-99.99,,,-99.99,,2013-06-04 06:22:00,
2013-06-03 23:32:00,63.0,53.0,29.76,ESE,114,0.0,-999.0,69,-99.99,,,-99.99,,2013-06-04 06:32:00,
2013-06-03 23:42:00,63.0,53.0,29.76,ESE,114,0.0,-999.0,69,-99.99,,,-99.99,,2013-06-04 06:42:00,
2013-06-03 23:52:00,62.0,52.0,29.76,SE,129,0.0,-999.0,70,-99.99,,,-99.99,,2013-06-04 06:52:00,